Temp
25 25 22 26 29 33 33 32 33 32 32 30 29 29 30 27 27 22 24 23 22 20 18 20 20 20 20 20 19 19 20 20 20 19 19 19 18 18 17 17 17 17 16 16 16 17 17 17 17
23 24 26 27 31 32 32 33 32 31 30 29 28 29 29 26 24 23 23 22 21 19 17 19 20 20 19 19 19 19 19 19 19 19 19 18 18 18 17 17 17 17 17 17 17 17 16 16 16
25 26 28 33 32 32 32 33 32 30 29 29 29 28 27 25 23 23 22 22 20 19 18 19 20 20 19 19 19 19 19 19 19 19 19 18 18 18 17 17 16 16 16 17 17 17 16 16 16
26 28 29 32 33 34 33 33 32 32 29 29 29 27 24 24 23 23 22 21 20 20 19 20 20 19 19 19 19 19 19 19 19 19 18 18 18 17 17 17 16 16 16 16 16 16 16 16 16
27 30 33 32 34 34 34 32 32 31 30 29 29 27 24 23 22 22 21 21 21 21 18 20 20 19 19 19 19 19 19 19 18 18 18 18 18 17 17 17 16 16 16 16 16 16 16 16 16
30 32 33 32 33 34 34 33 32 31 31 28 28 26 24 22 22 22 22 22 22 21 19 20 20 19 19 19 19 19 19 19 18 18 18 18 17 17 17 16 16 16 16 16 16 16 16 16 16
31 34 33 34 33 33 34 33 33 31 31 30 28 28 23 22 22 23 22 23 23 22 20 18 19 19 20 19 19 19 18 18 18 18 17 17 17 17 16 16 16 16 16 16 16 16 16 16 16
31 35 34 35 34 33 34 33 32 32 30 28 29 29 25 23 22 23 23 23 23 22 21 20 18 19 20 19 19 19 18 18 18 18 17 17 17 16 16 16 16 16 16 15 16 16 16 16 16
31 33 35 35 34 34 33 34 31 30 29 29 27 28 25 23 23 23 23 23 23 23 22 22 20 19 19 18 19 19 18 18 18 17 17 17 16 16 16 16 16 16 16 16 16 16 16 16 17
32 34 35 35 35 35 34 33 32 31 30 28 27 26 24 23 23 24 24 24 23 23 23 22 21 21 21 20 19 17 17 17 16 16 17 17 17 17 17 17 16 16 16 16 16 16 16 16 16
33 33 35 34 33 34 35 33 32 32 32 30 27 25 24 23 24 24 24 24 24 23 22 22 21 21 21 21 18 19 18 18 17 17 17 18 18 17 16 17 16 17 17 16 17 17 17 17 18
33 34 34 34 33 33 35 33 32 32 31 29 27 25 24 24 24 24 24 24 24 23 22 22 21 20 20 21 19 20 19 19 18 18 17 18 17 17 18 17 17 17 18 17 18 17 17 17 17
33 34 34 33 33 33 34 33 33 32 31 29 27 26 25 25 25 25 25 24 24 23 22 21 20 19 19 19 20 20 20 19 19 18 17 18 18 17 17 18 18 18 18 18 17 17 17 17 17
33 33 34 34 34 33 34 34 32 32 30 29 27 26 26 25 25 25 25 24 24 23 22 21 20 18 18 18 19 19 19 19 18 18 18 17 17 17 17 16 17 17 18 17 18 17 17 17 17
33 33 34 34 34 34 33 33 33 32 30 29 28 27 26 26 26 25 25 25 24 23 22 21 20 19 18 18 17 18 19 19 18 18 17 17 17 17 17 17 18 18 17 16 16 16 16 17 18
32 32 33 35 34 34 33 33 34 32 31 30 29 28 27 26 26 26 25 24 24 23 22 20 20 20 19 18 18 18 19 19 19 18 18 17 17 16 17 17 17 18 17 17 17 16 17 17 18
32 31 32 34 34 35 34 33 35 32 31 31 29 28 27 27 26 26 25 24 24 23 22 20 20 20 18 19 18 18 18 18 19 18 18 18 17 17 17 17 18 17 18 18 17 17 17 17 16
32 32 33 33 34 33 33 34 34 32 32 32 30 29 28 27 26 26 25 25 24 23 22 21 20 20 19 18 20 18 18 18 18 18 19 18 18 18 17 17 18 17 17 18 17 16 17 16 17
34 33 33 34 35 33 33 34 35 33 32 32 32 30 29 28 27 26 26 25 24 23 21 21 20 20 19 18 18 18 19 18 18 18 18 18 17 18 17 17 17 17 17 17 16 16 16 16 17
32 31 32 34 35 33 33 33 34 35 33 33 32 31 30 29 28 27 26 25 25 23 22 20 20 19 20 19 19 19 19 20 19 19 19 17 17 17 17 17 18 17 17 16 16 15 16 17 17
31 31 32 32 33 33 33 33 33 34 34 33 32 32 31 30 29 28 27 26 25 24 22 21 21 20 21 20 19 19 19 19 20 19 19 18 17 17 17 17 17 17 16 17 16 16 15 16 17
30 32 32 32 32 30 32 30 33 33 33 33 33 32 32 32 31 29 28 26 25 25 23 22 22 21 21 21 20 19 19 19 20 20 20 19 17 17 17 17 17 17 16 16 15 16 16 16 16
30 32 32 32 31 31 32 31 32 34 32 33 33 33 33 32 32 31 29 28 26 25 24 22 23 23 21 21 20 19 19 20 20 20 19 19 18 17 17 17 17 16 17 16 16 16 16 15 15
31 31 30 31 31 30 31 32 32 32 33 33 33 33 33 33 33 32 31 29 28 26 25 23 22 24 22 20 21 19 19 20 21 20 19 18 18 17 17 16 17 16 16 16 16 16 16 15 15
30 29 28 28 29 29 32 32 32 33 34 34 34 34 34 34 34 32 32 30 29 27 26 25 22 20 20 19 18 19 19 19 20 18 18 17 17 17 17 17 17 16 16 16 15 16 16 14 14
29 29 29 28 30 31 33 31 33 35 34 33 33 33 33 33 33 33 32 31 30 29 27 26 24 21 19 19 18 17 17 17 17 17 17 17 17 17 16 16 16 16 16 15 15 15 14 14 14
30 30 31 29 30 30 32 33 34 34 34 33 33 33 33 32 31 31 32 31 31 30 28 27 24 21 19 18 16 16 17 17 18 17 17 17 17 16 16 15 15 14 14 14 15 14 13 13 13
30 31 28 29 27 27 30 31 32 33 33 34 34 34 33 30 29 30 30 31 31 30 29 27 24 20 17 16 16 17 18 19 17 17 17 16 16 16 15 15 14 14 14 14 14 14 13 13 13
29 29 29 29 29 28 29 31 33 32 33 33 33 33 32 30 28 28 29 28 28 25 24 22 19 17 15 16 16 17 17 14 16 15 17 16 16 15 15 14 14 13 14 14 14 13 13 13 12
29 29 29 28 27 29 29 29 33 33 33 32 32 32 31 27 27 27 26 26 23 19 18 18 17 16 16 16 17 17 18 16 15 15 16 15 15 14 14 14 13 13 13 12 12 12 12 12 11
Height
1506 1503 1504 1507 1503 1474 1481 1488 1478 1485 1489 1496 1499 1495 1497 1503 1505 1528 1526 1530 1533 1536 1535 1537 1539 1540 1541 1543 1544 1545 1546 1546 1547 1546 1546 1546 1545 1545 1544 1544 1543 1542 1541 1541 1540 1540 1541 1542 1543
1507 1508 1508 1501 1493 1484 1488 1479 1488 1494 1499 1501 1503 1501 1501 1511 1517 1523 1527 1532 1535 1537 1538 1537 1539 1541 1542 1544 1545 1546 1547 1548 1548 1548 1548 1548 1547 1547 1546 1545 1545 1544 1543 1542 1541 1542 1542 1543 1544
1505 1507 1503 1482 1479 1486 1489 1482 1490 1498 1501 1501 1502 1506 1507 1518 1523 1525 1529 1533 1536 1539 1540 1538 1540 1542 1544 1545 1547 1548 1549 1549 1549 1549 1550 1550 1550 1549 1548 1547 1546 1545 1544 1544 1543 1543 1544 1544 1545
1508 1505 1499 1487 1480 1478 1483 1484 1492 1492 1501 1503 1503 1510 1519 1523 1525 1527 1531 1535 1537 1540 1541 1539 1541 1543 1545 1547 1548 1550 1550 1551 1551 1551 1551 1551 1551 1551 1550 1549 1548 1547 1546 1545 1545 1545 1545 1545 1546
1508 1497 1481 1486 1473 1477 1484 1490 1491 1495 1498 1504 1504 1511 1522 1525 1527 1529 1533 1536 1538 1541 1540 1540 1542 1544 1546 1548 1550 1551 1552 1552 1553 1553 1553 1553 1553 1552 1552 1551 1550 1549 1548 1547 1546 1547 1547 1547 1547
1502 1487 1482 1486 1480 1479 1481 1487 1489 1494 1497 1506 1508 1515 1522 1527 1529 1531 1534 1537 1539 1542 1543 1541 1544 1546 1548 1549 1551 1552 1553 1553 1554 1554 1554 1554 1554 1553 1553 1552 1552 1550 1549 1548 1548 1547 1548 1548 1548
1499 1480 1483 1476 1478 1480 1479 1486 1485 1495 1496 1502 1508 1509 1524 1528 1530 1532 1535 1538 1540 1543 1545 1546 1546 1548 1549 1551 1552 1553 1554 1555 1555 1556 1556 1556 1555 1555 1555 1554 1554 1553 1552 1550 1549 1548 1548 1548 1549
1497 1480 1474 1469 1474 1481 1482 1486 1493 1492 1502 1507 1506 1505 1522 1526 1530 1533 1535 1538 1541 1544 1546 1548 1549 1549 1550 1552 1553 1554 1556 1557 1557 1558 1558 1558 1558 1557 1557 1556 1556 1555 1554 1553 1551 1549 1549 1549 1550
1499 1485 1472 1469 1476 1473 1482 1484 1494 1500 1504 1506 1510 1510 1516 1525 1529 1532 1535 1538 1541 1544 1547 1549 1551 1552 1554 1555 1553 1555 1556 1557 1558 1559 1560 1560 1559 1558 1558 1558 1558 1556 1555 1554 1553 1552 1551 1550 1551
1493 1478 1469 1472 1474 1473 1478 1483 1492 1496 1502 1508 1513 1514 1519 1525 1528 1531 1534 1537 1540 1544 1546 1549 1551 1553 1556 1557 1555 1556 1557 1559 1559 1561 1561 1560 1564 1562 1562 1559 1558 1556 1555 1554 1554 1553 1552 1550 1550
1490 1480 1472 1479 1482 1480 1476 1483 1491 1491 1491 1500 1511 1516 1520 1525 1529 1531 1534 1536 1539 1543 1546 1548 1551 1553 1556 1558 1558 1560 1561 1562 1563 1563 1562 1564 1564 1563 1560 1559 1558 1557 1555 1553 1554 1554 1552 1553 1553
1488 1480 1480 1480 1484 1482 1477 1482 1492 1490 1496 1502 1509 1515 1520 1524 1527 1530 1533 1536 1538 1542 1545 1548 1550 1552 1555 1558 1559 1561 1562 1563 1563 1563 1562 1563 1562 1563 1563 1561 1558 1559 1560 1558 1557 1556 1555 1556 1555
1488 1479 1481 1483 1484 1482 1479 1481 1486 1490 1499 1504 1510 1515 1519 1522 1526 1529 1532 1535 1538 1541 1544 1546 1548 1550 1553 1556 1558 1561 1562 1562 1562 1563 1563 1564 1563 1562 1563 1563 1562 1560 1560 1559 1559 1557 1557 1556 1556
1486 1481 1479 1481 1481 1482 1479 1481 1487 1490 1499 1505 1510 1514 1518 1521 1524 1527 1530 1533 1537 1539 1542 1545 1548 1549 1551 1554 1557 1559 1560 1561 1561 1562 1563 1562 1563 1562 1563 1560 1561 1562 1561 1560 1560 1559 1557 1557 1555
1485 1485 1481 1479 1478 1479 1482 1480 1484 1487 1497 1503 1509 1512 1516 1520 1522 1525 1528 1531 1535 1537 1540 1543 1546 1548 1548 1550 1552 1556 1559 1560 1561 1562 1561 1562 1562 1562 1563 1561 1562 1561 1562 1561 1560 1560 1559 1557 1556
1488 1485 1484 1471 1475 1477 1481 1479 1475 1485 1494 1500 1505 1509 1513 1517 1519 1523 1527 1530 1533 1536 1538 1541 1545 1546 1545 1547 1550 1553 1556 1557 1559 1560 1560 1559 1560 1561 1561 1561 1558 1560 1562 1561 1562 1560 1559 1558 1557
1484 1488 1483 1469 1472 1470 1476 1476 1472 1482 1489 1494 1502 1505 1509 1513 1517 1520 1524 1527 1530 1534 1536 1538 1541 1544 1544 1545 1548 1550 1553 1554 1556 1557 1558 1558 1558 1559 1559 1560 1561 1559 1561 1561 1560 1560 1560 1558 1556
1483 1484 1471 1473 1468 1473 1473 1469 1469 1480 1485 1488 1495 1501 1505 1508 1512 1516 1520 1524 1528 1530 1533 1535 1537 1540 1541 1542 1544 1547 1549 1549 1551 1552 1554 1555 1555 1556 1556 1558 1559 1558 1559 1560 1560 1559 1559 1558 1557
1463 1467 1471 1459 1459 1471 1472 1471 1464 1473 1482 1484 1486 1494 1499 1503 1507 1511 1515 1519 1523 1527 1529 1531 1533 1535 1537 1538 1541 1543 1544 1545 1547 1548 1550 1551 1551 1552 1553 1554 1556 1557 1557 1558 1558 1558 1557 1557 1557
1473 1477 1470 1459 1459 1470 1470 1470 1464 1465 1473 1478 1481 1486 1491 1496 1501 1504 1508 1512 1516 1520 1522 1524 1526 1529 1532 1535 1536 1540 1541 1543 1544 1545 1546 1545 1547 1549 1550 1550 1552 1553 1554 1554 1555 1555 1554 1555 1554
1479 1477 1474 1471 1466 1471 1472 1471 1467 1464 1467 1470 1476 1479 1482 1487 1492 1496 1500 1503 1508 1512 1514 1518 1519 1523 1524 1528 1531 1534 1537 1538 1539 1540 1541 1541 1542 1544 1545 1546 1546 1547 1549 1552 1551 1552 1552 1551 1550
1481 1469 1471 1468 1471 1490 1472 1492 1465 1465 1468 1468 1470 1474 1476 1477 1482 1488 1492 1497 1499 1502 1509 1512 1514 1517 1519 1522 1528 1528 1530 1533 1534 1535 1536 1535 1536 1538 1539 1539 1539 1542 1545 1548 1547 1548 1549 1548 1548
1477 1466 1469 1472 1475 1477 1471 1479 1465 1452 1465 1464 1467 1466 1467 1470 1472 1476 1482 1488 1494 1498 1500 1502 1506 1509 1513 1516 1522 1525 1526 1530 1532 1533 1534 1533 1533 1534 1534 1533 1535 1536 1539 1542 1542 1544 1544 1546 1545
1473 1474 1476 1474 1474 1487 1473 1471 1463 1461 1455 1457 1459 1461 1460 1458 1461 1466 1471 1480 1486 1491 1495 1497 1499 1502 1506 1511 1515 1521 1524 1526 1530 1533 1534 1532 1530 1530 1530 1531 1531 1533 1533 1536 1537 1539 1540 1539 1539
1475 1480 1492 1496 1490 1487 1459 1465 1457 1448 1446 1449 1450 1453 1451 1451 1449 1456 1462 1469 1476 1484 1489 1493 1497 1499 1502 1506 1510 1515 1519 1522 1526 1527 1531 1531 1527 1528 1527 1526 1525 1527 1528 1531 1533 1534 1534 1534 1535
1474 1475 1482 1493 1480 1465 1441 1463 1449 1437 1442 1448 1451 1449 1449 1450 1451 1450 1456 1462 1467 1474 1480 1488 1494 1498 1501 1505 1508 1511 1515 1519 1524 1527 1524 1528 1528 1524 1524 1524 1523 1524 1524 1526 1527 1530 1531 1530 1531
1467 1472 1463 1473 1465 1470 1453 1436 1433 1436 1440 1446 1448 1446 1445 1447 1452 1452 1451 1454 1459 1463 1470 1478 1487 1495 1496 1497 1498 1503 1507 1513 1520 1523 1521 1524 1522 1522 1522 1522 1522 1521 1522 1523 1523 1525 1528 1529 1529
1467 1459 1478 1472 1497 1494 1461 1452 1446 1434 1438 1439 1439 1438 1439 1448 1451 1451 1451 1450 1455 1460 1463 1473 1467 1479 1486 1489 1492 1496 1505 1509 1517 1520 1519 1517 1516 1517 1519 1519 1520 1520 1520 1521 1522 1523 1526 1527 1527
1467 1470 1469 1466 1468 1478 1474 1455 1432 1438 1439 1441 1443 1441 1441 1448 1453 1453 1452 1454 1457 1459 1462 1463 1468 1476 1486 1492 1497 1496 1490 1499 1509 1512 1514 1515 1515 1516 1516 1518 1517 1517 1519 1521 1522 1523 1524 1525 1525
1461 1464 1462 1473 1478 1467 1469 1465 1433 1437 1441 1444 1445 1444 1444 1453 1455 1457 1457 1458 1461 1465 1468 1471 1476 1481 1488 1494 1497 1496 1493 1490 1500 1510 1510 1514 1513 1513 1514 1518 1517 1518 1520 1522 1522 1523 1523 1523 1524
Wind_Speed
5 4 3 9 8 6 11 12 4 9 12 7 7 13 14 16 16 6 21 15 17 15 15 16 15 15 14 12 11 11 11 11 10 10 10 10 12 11 11 11 11 10 8 7 6 6 6 5 6
3 7 10 12 4 5 9 11 16 13 10 7 5 1 5 14 11 22 18 18 17 16 16 15 16 15 13 11 11 12 12 11 10 10 10 11 11 11 11 12 13 13 12 10 7 7 7 7 7
8 10 15 13 14 9 11 14 13 9 6 3 4 7 7 11 16 18 18 20 17 17 15 15 17 15 12 11 11 12 11 11 10 10 10 11 11 11 11 12 13 13 12 11 10 8 8 8 8
4 10 13 1 5 11 12 12 5 10 9 5 5 13 14 17 11 14 22 19 18 16 14 17 17 15 12 11 12 11 11 10 10 10 11 11 11 11 11 12 12 11 11 10 10 9 9 9 8
10 14 14 10 15 10 13 9 13 8 7 9 2 15 13 9 14 22 20 18 17 16 15 17 17 15 13 12 12 11 10 9 9 10 11 11 11 11 13 14 15 15 13 11 9 8 7 6 6
15 17 9 2 14 7 13 7 4 13 9 6 13 15 12 13 18 20 18 17 16 16 15 17 17 15 13 12 12 11 9 9 8 9 10 10 11 12 13 15 15 15 15 14 12 9 7 5 5
17 12 10 10 13 10 12 3 12 8 7 10 10 10 13 15 17 18 18 16 16 15 16 15 16 15 13 13 12 11 10 9 8 8 9 9 10 12 13 14 14 13 12 12 13 11 10 9 9
19 11 4 4 6 13 12 4 9 8 10 7 4 4 16 18 18 18 17 16 16 15 13 14 15 14 12 12 12 12 11 9 7 7 7 7 8 9 10 11 12 13 14 12 10 10 10 10 10
12 12 10 5 4 12 14 11 7 6 10 4 5 1 20 20 20 19 18 17 16 15 14 14 14 14 12 11 12 12 11 9 7 6 7 8 4 4 7 5 8 10 11 11 9 8 10 12 9
14 13 5 9 6 1 12 11 12 9 8 9 7 13 19 21 21 20 19 18 17 16 16 15 15 14 14 11 11 11 9 7 6 4 3 3 3 6 4 4 5 10 6 12 14 8 10 5 3
16 16 10 7 3 6 9 11 10 9 11 12 13 16 19 20 20 19 17 17 17 16 16 15 16 15 14 11 9 8 8 7 6 8 6 3 2 2 6 6 4 9 10 2 6 7 2 1 0
15 16 1 6 3 7 6 15 7 2 8 11 16 18 21 21 20 19 17 16 16 17 17 16 15 15 14 11 10 9 9 9 7 6 7 5 4 2 1 5 4 6 1 1 1 1 4 3 3
14 14 8 5 3 8 5 11 7 7 6 13 18 19 19 19 18 17 17 16 16 17 17 18 16 16 15 13 10 9 9 9 8 7 7 5 3 6 3 2 2 2 2 2 2 1 2 2 2
16 19 9 7 7 9 11 8 6 11 9 16 18 18 18 19 19 18 18 18 17 17 18 17 17 16 14 13 11 10 10 9 9 8 7 7 4 4 4 8 2 2 2 0 1 1 2 2 4
14 14 13 12 12 7 14 14 13 16 13 17 18 18 18 18 19 19 18 18 18 17 17 18 17 16 17 16 13 10 9 9 9 8 9 8 7 5 7 5 1 4 3 4 3 3 4 3 5
14 15 16 16 10 9 14 18 18 14 16 17 18 18 19 20 20 19 19 18 18 17 17 18 17 17 18 16 13 11 11 11 10 9 8 9 8 7 7 6 3 5 3 4 4 4 4 5 5
15 14 18 11 10 8 15 11 16 19 18 18 19 20 21 21 21 21 21 21 20 19 18 18 19 18 18 17 14 14 13 13 11 10 9 9 8 7 9 5 5 6 6 6 6 6 6 6 5
18 19 17 15 14 10 14 15 18 17 18 17 19 21 21 22 24 24 24 23 22 21 20 19 20 21 20 16 18 14 14 14 14 13 12 11 10 8 9 7 8 7 7 7 7 8 7 7 7
13 14 20 9 8 17 17 15 11 19 17 17 20 21 22 23 24 25 26 26 25 24 24 24 23 23 23 20 17 17 16 15 14 15 15 14 13 10 10 8 10 8 8 9 7 9 9 7 7
12 16 16 13 14 8 16 18 16 17 17 18 17 19 22 24 24 27 29 30 30 29 29 28 27 26 26 21 21 18 16 14 14 13 15 16 15 12 10 11 9 10 11 12 10 10 9 10 9
15 18 15 18 10 13 17 19 14 13 13 19 19 18 22 24 27 29 32 34 33 34 33 31 31 30 29 26 22 22 18 18 15 15 15 16 16 14 13 12 12 12 15 11 14 10 9 9 12
15 15 17 18 12 11 18 15 17 17 17 17 16 20 23 25 27 31 33 34 36 37 33 33 32 31 32 30 24 25 21 18 16 16 17 17 16 16 17 17 16 16 12 12 13 11 9 12 11
14 12 11 17 15 15 23 13 13 12 19 18 21 26 24 25 27 32 35 37 35 33 36 37 34 32 32 32 29 26 24 17 16 15 15 16 15 18 21 19 18 17 16 16 17 14 16 13 16
10 9 11 15 16 18 21 20 14 13 16 16 21 23 28 27 26 29 35 34 34 35 35 34 35 34 32 31 31 31 24 20 16 16 16 16 16 18 18 18 19 19 19 17 17 17 16 20 18
11 11 9 11 12 16 19 21 19 19 19 15 14 20 24 25 24 24 29 36 36 34 34 34 30 29 29 28 26 28 28 22 19 15 16 15 15 12 14 16 18 18 17 17 17 17 19 16 16
15 14 12 13 12 13 22 20 17 16 9 11 23 23 21 18 22 11 21 31 36 35 35 32 29 25 23 21 20 18 17 15 12 14 15 16 12 12 15 14 14 14 13 13 14 16 14 12 8
12 15 16 17 17 14 13 11 4 10 9 12 19 18 14 13 10 14 18 24 31 36 37 35 29 22 21 24 25 24 19 9 11 16 18 17 16 14 12 10 11 9 10 11 13 12 7 7 8
14 6 9 9 14 15 14 13 10 11 10 9 11 9 3 6 6 9 12 13 18 23 31 31 30 31 29 29 26 24 18 8 17 24 20 18 15 12 11 9 10 9 10 8 5 2 7 6 8
8 12 12 13 10 12 9 7 13 12 10 11 13 18 15 9 7 4 2 5 8 12 19 29 30 31 24 21 19 23 30 13 27 24 21 18 13 12 9 8 8 6 5 4 3 4 7 7 8
9 13 9 7 9 11 11 13 17 10 5 13 17 20 12 9 3 1 6 10 12 13 16 19 20 19 22 22 20 21 27 29 28 21 16 13 10 7 6 5 6 5 2 1 3 4 6 6 7
Wind_Direction
237 250 253 260 262 216 89 91 48 50 63 51 48 2 44 32 25 98 136 137 142 143 150 154 148 144 140 136 134 128 121 115 109 102 94 79 73 72 66 61 60 60 60 67 76 116 133 132 118
208 252 257 270 272 276 80 58 54 55 63 71 82 277 68 74 74 131 132 141 145 144 140 154 148 147 141 136 129 124 121 119 114 103 84 79 78 73 70 70 72 73 70 71 77 104 126 130 119
196 238 273 246 213 50 87 66 71 86 100 41 125 31 11 90 112 135 141 144 145 142 147 159 155 149 143 132 129 126 123 117 105 94 87 84 79 74 72 70 71 73 76 77 81 93 112 120 118
234 241 248 267 25 53 93 78 122 118 99 41 59 94 87 118 119 142 144 147 145 146 154 160 156 149 141 137 136 132 125 116 106 99 93 89 83 81 77 71 69 71 77 81 85 94 108 116 117
244 260 257 218 89 110 84 76 48 109 118 67 343 95 114 113 131 139 147 151 148 148 163 163 158 151 143 142 139 136 131 121 110 99 94 90 85 82 75 74 73 72 74 78 84 98 107 111 109
242 253 275 331 93 85 111 127 109 53 62 79 95 124 100 134 140 147 151 152 151 156 153 165 161 153 149 147 149 147 139 123 112 100 94 89 85 80 78 80 78 74 71 72 79 85 94 108 99
254 253 244 208 112 180 108 112 66 60 110 67 135 117 135 152 151 154 154 156 156 158 160 159 163 159 155 155 157 155 144 135 124 106 97 93 87 81 76 77 73 69 71 76 77 87 90 94 95
269 284 249 243 140 101 103 139 68 5 78 101 154 133 163 161 158 160 159 161 159 161 164 166 168 164 160 163 166 163 154 148 130 117 103 93 86 82 76 70 68 66 60 64 74 89 92 94 98
241 263 221 140 191 106 126 134 100 81 124 88 67 269 154 162 161 163 164 165 165 167 168 169 173 173 165 175 175 173 167 158 147 131 109 76 101 65 72 99 61 65 61 52 54 97 103 102 78
237 241 66 26 19 180 137 147 119 176 140 116 117 108 146 160 168 170 172 172 173 173 173 176 177 178 172 184 192 177 178 172 154 159 129 52 173 159 160 27 56 44 68 62 42 94 89 84 140
226 262 92 146 52 280 140 135 116 229 168 139 148 151 158 167 174 177 178 179 178 178 179 182 184 182 183 182 188 187 199 195 200 198 190 211 204 269 283 340 351 19 19 5 4 27 326 287 179
248 254 268 81 119 207 202 117 139 300 40 105 148 156 161 169 177 182 183 184 181 184 184 184 192 188 184 189 187 199 205 203 203 216 207 207 212 200 106 332 328 8 344 111 57 286 137 138 130
227 252 220 207 237 243 182 153 165 163 106 132 148 158 166 173 179 185 186 187 187 188 191 189 195 190 192 188 196 198 202 208 202 214 222 208 241 247 222 288 300 289 301 340 41 52 148 168 136
217 263 215 232 237 200 235 159 182 147 146 147 159 166 173 179 181 183 189 190 191 192 197 195 194 198 194 193 192 204 202 218 205 207 221 215 210 256 255 245 5 280 305 293 313 269 292 275 233
258 247 239 236 233 212 237 191 186 150 168 160 172 175 179 187 187 187 188 190 192 195 198 196 195 204 199 200 199 196 213 203 215 212 220 220 236 256 283 292 235 260 261 264 289 317 296 266 265
226 239 236 219 198 205 213 217 173 160 176 172 183 182 186 192 194 193 192 192 194 193 195 194 198 205 209 206 205 198 205 209 215 218 228 229 232 246 260 275 332 232 273 278 272 295 278 284 279
212 225 230 193 195 208 216 224 181 166 187 178 189 190 195 195 201 198 199 197 197 195 196 196 196 202 208 206 205 206 212 209 215 221 223 230 236 253 260 255 257 273 258 276 270 272 272 276 274
211 223 224 241 167 229 212 258 139 172 186 193 191 201 200 201 204 206 205 205 203 202 198 201 199 197 213 207 211 212 216 219 216 221 222 224 232 237 245 239 239 266 265 270 271 267 268 263 270
251 257 224 224 214 191 239 223 182 170 204 209 192 202 209 211 209 209 211 210 209 207 206 203 207 211 203 205 208 211 218 225 225 227 226 225 227 226 236 223 244 262 263 262 280 275 279 268 270
277 258 268 241 201 207 229 244 238 185 196 218 212 205 213 214 214 210 211 211 211 210 210 212 209 214 216 213 211 214 219 225 230 232 231 229 223 222 223 230 233 248 250 251 255 258 255 266 253
238 246 240 258 179 231 253 246 233 244 257 213 219 232 218 218 215 215 212 210 210 212 213 214 218 215 226 213 216 214 211 219 222 227 229 230 222 218 226 224 236 226 248 256 268 252 243 262 264
245 225 255 260 242 223 223 254 235 226 239 249 249 235 240 230 220 218 216 212 210 211 213 216 222 224 227 228 212 213 213 217 225 229 230 220 218 217 216 227 231 242 231 237 254 261 253 266 264
255 286 234 254 256 252 262 229 264 252 213 229 242 251 240 238 233 222 220 217 216 212 210 215 219 224 223 226 215 220 216 222 226 225 225 223 226 227 225 233 237 242 245 238 249 252 261 257 263
262 249 252 251 246 245 246 261 241 234 240 222 240 246 254 244 236 233 225 217 215 215 213 213 217 220 221 220 225 211 222 213 224 230 233 226 233 231 235 229 239 239 241 248 249 257 264 272 254
231 224 224 220 226 248 248 246 252 262 271 258 246 255 269 265 243 225 227 218 214 213 214 212 210 213 214 215 218 210 210 226 216 232 245 237 231 234 242 235 235 236 244 251 255 259 282 268 263
205 240 254 256 240 251 221 235 251 251 308 274 292 286 280 282 284 235 230 229 221 212 211 211 210 209 206 204 200 197 203 217 233 260 252 254 244 237 241 230 240 242 237 244 257 278 272 272 260
226 225 244 274 281 277 278 307 247 247 240 229 244 251 260 246 278 276 267 227 231 221 209 203 200 201 193 185 182 180 184 194 268 273 274 263 247 248 228 222 234 226 241 248 267 267 258 262 280
266 308 236 233 261 274 277 253 263 192 210 234 287 289 35 51 295 283 255 245 225 233 220 195 181 182 180 175 177 171 176 243 270 273 260 259 252 227 228 230 228 242 246 254 244 264 299 288 285
184 234 243 278 302 304 285 255 57 24 347 331 314 300 337 17 346 322 139 167 155 151 158 167 168 172 165 162 166 162 165 298 276 258 266 266 248 244 223 228 221 207 212 213 265 276 282 290 284
322 314 324 248 235 244 273 289 311 321 331 318 311 297 353 356 302 136 103 132 121 106 124 161 175 170 173 186 182 211 251 246 212 242 244 236 228 207 217 176 158 140 127 253 287 281 276 295 296